ANA761 RJOO-ROAH

Flight info

Callsign ANA761
Flight time 2h 7m
Altitude 34000
Route TIGER MAIKO Y75 ONC Y525 IHEYA
Aircraft B77W/H-SDE1E2E3FGHIJ2J3J4J5M1RWXY/LB1D1

Departure

Time 2026-05-05 15:53
Airport Osaka Itami International Airport (RJOO)

Arrival

Time 2026-05-05 18:01
Airport Naha International Airport (ROAH)
Time Latitude Longitude Altitude Speed Heading
2026-05-05 15:21 34.78964 135.44088 40 ft 0 kts 68°
2026-05-05 15:39 34.78958 135.44071 48 ft 2 kts 68°
2026-05-05 15:39 34.78952 135.44053 47 ft 2 kts 68°
2026-05-05 15:40 34.78946 135.44034 49 ft 2 kts 68°
2026-05-05 15:40 34.78940 135.44015 49 ft 2 kts 69°
2026-05-05 15:40 34.78934 135.43996 48 ft 2 kts 80°
2026-05-05 15:40 34.78933 135.43983 47 ft 2 kts 84°
2026-05-05 15:41 34.78932 135.43956 46 ft 2 kts 89°
2026-05-05 15:41 34.78932 135.43943 48 ft 2 kts 92°
2026-05-05 15:41 34.78933 135.43923 49 ft 2 kts 96°
2026-05-05 15:41 34.78936 135.43897 49 ft 2 kts 110°
2026-05-05 15:42 34.78939 135.43889 49 ft 0 kts 123°
2026-05-05 15:45 34.78938 135.43891 49 ft 2 kts 123°
2026-05-05 15:45 34.78918 135.43917 45 ft 5 kts 137°
2026-05-05 15:45 34.78888 135.43951 47 ft 8 kts 137°
2026-05-05 15:46 34.78832 135.44017 52 ft 13 kts 135°
2026-05-05 15:46 34.78773 135.44090 48 ft 10 kts 130°
2026-05-05 15:46 34.78738 135.44142 47 ft 2 kts 142°
2026-05-05 15:47 34.78730 135.44149 50 ft 5 kts 142°
2026-05-05 15:47 34.78695 135.44185 47 ft 9 kts 139°
2026-05-05 15:47 34.78631 135.44206 51 ft 11 kts 189°
2026-05-05 15:47 34.78551 135.44233 50 ft 14 kts 138°
2026-05-05 15:48 34.78471 135.44320 48 ft 17 kts 152°
2026-05-05 15:48 34.78373 135.44340 50 ft 12 kts 173°
2026-05-05 15:48 34.78332 135.44326 52 ft 0 kts 210°
2026-05-05 15:48 34.78316 135.44328 53 ft 8 kts 175°
2026-05-05 15:49 34.78225 135.44334 52 ft 15 kts 178°
2026-05-05 15:49 34.78135 135.44382 46 ft 15 kts 134°
2026-05-05 15:49 34.78064 135.44471 46 ft 15 kts 135°
2026-05-05 15:49 34.77992 135.44558 50 ft 15 kts 135°
2026-05-05 15:50 34.77919 135.44646 47 ft 15 kts 135°
2026-05-05 15:50 34.77847 135.44734 47 ft 15 kts 135°
2026-05-05 15:50 34.77775 135.44822 46 ft 15 kts 135°
2026-05-05 15:50 34.77698 135.44903 50 ft 15 kts 151°
2026-05-05 15:51 34.77611 135.44958 51 ft 11 kts 156°
2026-05-05 15:51 34.77540 135.44997 53 ft 11 kts 156°
2026-05-05 15:51 34.77511 135.45011 50 ft 0 kts 163°
2026-05-05 15:51 34.77508 135.45012 51 ft 2 kts 165°
2026-05-05 15:52 34.77467 135.45008 53 ft 10 kts 198°
2026-05-05 15:52 34.77435 135.44944 54 ft 10 kts 279°
2026-05-05 15:52 34.77476 135.44875 49 ft 14 kts 314°
2026-05-05 15:52 34.77660 135.44653 48 ft 73 kts 315°
2026-05-05 15:53 34.78212 135.43984 49 ft 148 kts 315°
2026-05-05 15:53 34.79032 135.42960 370 ft 174 kts 314°
2026-05-05 15:53 34.79828 135.41867 1180 ft 174 kts 303°
2026-05-05 15:53 34.80140 135.40394 1727 ft 186 kts 259°
2026-05-05 15:54 34.79530 135.39019 2316 ft 192 kts 217°
2026-05-05 15:54 34.78421 135.38209 3154 ft 182 kts 208°
2026-05-05 15:54 34.77239 135.37568 3699 ft 195 kts 199°
2026-05-05 15:54 34.75828 135.37286 3915 ft 223 kts 177°
2026-05-05 15:55 34.74226 135.37691 4281 ft 245 kts 160°
2026-05-05 15:55 34.72545 135.38216 4720 ft 263 kts 180°
2026-05-05 15:55 34.70827 135.37660 5827 ft 247 kts 202°
2026-05-05 15:55 34.69271 135.36770 6707 ft 254 kts 213°
2026-05-05 15:56 34.68385 135.35680 6825 ft 276 kts 237°
2026-05-05 15:56 34.67868 135.33512 8020 ft 263 kts 265°
2026-05-05 15:56 34.67900 135.31318 8979 ft 262 kts 268°
2026-05-05 15:56 34.67953 135.29034 9500 ft 274 kts 268°
2026-05-05 15:57 34.67979 135.26696 10227 ft 282 kts 266°
2026-05-05 15:57 34.67988 135.24225 10564 ft 306 kts 268°
2026-05-05 15:57 34.68026 135.21526 10765 ft 333 kts 268°
2026-05-05 15:57 34.67970 135.18614 10950 ft 357 kts 260°
2026-05-05 15:58 34.67442 135.15663 11539 ft 367 kts 250°
2026-05-05 15:58 34.66462 135.12772 12372 ft 373 kts 242°
2026-05-05 15:58 34.65286 135.09949 13410 ft 377 kts 241°
2026-05-05 15:58 34.64091 135.07087 14404 ft 383 kts 242°
2026-05-05 15:59 34.62902 135.04176 15372 ft 387 kts 242°
2026-05-05 15:59 34.61709 135.01223 16357 ft 391 kts 243°
2026-05-05 15:59 34.60451 134.98287 17303 ft 394 kts 239°
2026-05-05 15:59 34.59060 134.95401 18191 ft 399 kts 238°
2026-05-05 16:00 34.57628 134.92489 18977 ft 404 kts 238°
2026-05-05 16:00 34.56193 134.89553 19884 ft 404 kts 239°
2026-05-05 16:00 34.54767 134.86617 20867 ft 402 kts 239°
2026-05-05 16:00 34.53261 134.83769 21826 ft 402 kts 234°
2026-05-05 16:01 34.51516 134.81118 22712 ft 402 kts 230°
2026-05-05 16:01 34.49680 134.78547 23537 ft 404 kts 230°
2026-05-05 16:01 34.47848 134.75950 24272 ft 405 kts 231°
2026-05-05 16:01 34.46027 134.73348 25008 ft 404 kts 231°
2026-05-05 16:02 34.44215 134.70748 25758 ft 403 kts 231°
2026-05-05 16:02 34.42408 134.68152 26492 ft 403 kts 231°
2026-05-05 16:02 34.40600 134.65556 27167 ft 403 kts 232°
2026-05-05 16:02 34.38789 134.62956 27794 ft 404 kts 232°
2026-05-05 16:03 34.36976 134.60356 28386 ft 405 kts 232°
2026-05-05 16:03 34.35153 134.57745 28971 ft 406 kts 232°
2026-05-05 16:03 34.33326 134.55129 29522 ft 407 kts 232°
2026-05-05 16:03 34.31493 134.52506 30020 ft 408 kts 232°
2026-05-05 16:04 34.29655 134.49878 30452 ft 410 kts 232°
2026-05-05 16:04 34.27838 134.47284 30805 ft 410 kts 232°
2026-05-05 16:04 34.25992 134.44650 31202 ft 410 kts 232°
2026-05-05 16:04 34.24155 134.42032 31686 ft 407 kts 232°
2026-05-05 16:05 34.22329 134.39432 32148 ft 404 kts 232°
2026-05-05 16:05 34.20514 134.36847 32576 ft 403 kts 233°
2026-05-05 16:05 34.18702 134.34268 32969 ft 402 kts 233°
2026-05-05 16:05 34.16897 134.31698 33341 ft 401 kts 233°
2026-05-05 16:06 34.15095 134.29136 33770 ft 398 kts 233°
2026-05-05 16:06 34.13310 134.26600 34203 ft 396 kts 233°
2026-05-05 16:06 34.11517 134.24053 34180 ft 398 kts 233°
2026-05-05 16:07 34.07943 134.18984 34197 ft 395 kts 233°
2026-05-05 16:07 34.04366 134.13915 34205 ft 400 kts 233°
2026-05-05 16:08 34.00723 134.08761 34216 ft 407 kts 233°
2026-05-05 16:08 33.97219 134.03812 34212 ft 409 kts 233°
2026-05-05 16:09 33.93525 133.98602 34212 ft 409 kts 233°
2026-05-05 16:09 33.89830 133.93395 34197 ft 409 kts 233°
2026-05-05 16:10 33.86140 133.88201 34208 ft 407 kts 233°
2026-05-05 16:10 33.82469 133.83026 34228 ft 405 kts 234°
2026-05-05 16:11 33.79176 133.77549 34209 ft 404 kts 238°
2026-05-05 16:12 33.72804 133.66426 34182 ft 405 kts 237°
2026-05-05 16:13 33.64852 133.52562 34215 ft 404 kts 238°
2026-05-05 16:13 33.61667 133.47020 34211 ft 403 kts 238°
2026-05-05 16:14 33.55292 133.35939 34208 ft 404 kts 237°
2026-05-05 16:15 33.48906 133.24883 34227 ft 402 kts 238°
2026-05-05 16:16 33.42532 133.13870 34209 ft 402 kts 237°
2026-05-05 16:17 33.37767 133.05675 34238 ft 401 kts 237°
2026-05-05 16:18 33.32967 132.97450 34215 ft 402 kts 237°
2026-05-05 16:19 33.28168 132.89236 34236 ft 402 kts 237°
2026-05-05 16:19 33.23353 132.81023 34215 ft 402 kts 237°
2026-05-05 16:20 33.16948 132.70113 34203 ft 401 kts 237°
2026-05-05 16:22 33.07933 132.57295 34212 ft 409 kts 227°
2026-05-05 16:23 32.98914 132.48896 34179 ft 412 kts 223°
2026-05-05 16:23 32.92090 132.42667 34187 ft 412 kts 223°
2026-05-05 16:24 32.87549 132.38514 34174 ft 412 kts 223°
2026-05-05 16:25 32.80733 132.32286 34178 ft 412 kts 223°
2026-05-05 16:25 32.73912 132.26065 34177 ft 412 kts 223°
2026-05-05 16:26 32.64781 132.17911 34180 ft 414 kts 220°
2026-05-05 16:27 32.59812 132.14382 34176 ft 417 kts 218°
2026-05-05 16:27 32.54834 132.10862 34171 ft 416 kts 218°
2026-05-05 16:28 32.49864 132.07337 34171 ft 416 kts 218°
2026-05-05 16:28 32.45734 132.04414 34173 ft 416 kts 218°
2026-05-05 16:29 32.39926 132.00307 34172 ft 416 kts 218°
2026-05-05 16:29 32.35802 131.97394 34169 ft 415 kts 218°
2026-05-05 16:30 32.30032 131.93321 34166 ft 415 kts 218°
2026-05-05 16:30 32.25873 131.90390 34166 ft 415 kts 218°
2026-05-05 16:31 32.20912 131.86896 34167 ft 415 kts 218°
2026-05-05 16:31 32.15984 131.83431 34168 ft 415 kts 217°
2026-05-05 16:32 32.11025 131.79948 34173 ft 415 kts 217°
2026-05-05 16:32 32.06058 131.76463 34172 ft 415 kts 217°
2026-05-05 16:33 32.01085 131.72979 34169 ft 416 kts 217°
2026-05-05 16:33 31.96110 131.69498 34160 ft 416 kts 217°
2026-05-05 16:34 31.91125 131.66016 34153 ft 417 kts 217°
2026-05-05 16:34 31.86131 131.62533 34153 ft 417 kts 217°
2026-05-05 16:35 31.81130 131.59048 34153 ft 418 kts 217°
2026-05-05 16:35 31.76128 131.55565 34157 ft 418 kts 217°
2026-05-05 16:36 31.71123 131.52086 34162 ft 418 kts 217°
2026-05-05 16:36 31.66107 131.48602 34160 ft 419 kts 217°
2026-05-05 16:37 31.61083 131.45117 34155 ft 419 kts 217°
2026-05-05 16:37 31.56089 131.41658 34151 ft 420 kts 217°
2026-05-05 16:38 31.51051 131.38173 34150 ft 420 kts 217°
2026-05-05 16:38 31.46011 131.34691 34145 ft 421 kts 217°
2026-05-05 16:39 31.40975 131.31214 34144 ft 420 kts 217°
2026-05-05 16:39 31.35932 131.27738 34145 ft 421 kts 218°
2026-05-05 16:40 31.30881 131.24263 34150 ft 422 kts 218°
2026-05-05 16:40 31.25818 131.20782 34135 ft 422 kts 218°
2026-05-05 16:41 31.20783 131.17325 34142 ft 423 kts 218°
2026-05-05 16:41 31.15709 131.13845 34173 ft 423 kts 218°
2026-05-05 16:42 31.13182 131.12116 34549 ft 419 kts 218°
2026-05-05 16:42 31.10685 131.10410 35016 ft 413 kts 218°
2026-05-05 16:42 31.08215 131.08724 35436 ft 409 kts 218°
2026-05-05 16:42 31.05769 131.07053 35801 ft 407 kts 219°
2026-05-05 16:43 31.03329 131.05384 36034 ft 407 kts 219°
2026-05-05 16:43 31.00877 131.03704 36057 ft 410 kts 219°
2026-05-05 16:43 30.96087 131.00431 36123 ft 409 kts 219°
2026-05-05 16:44 30.91188 130.97093 36121 ft 407 kts 219°
2026-05-05 16:44 30.86306 130.93769 36124 ft 407 kts 219°
2026-05-05 16:45 30.81425 130.90450 36121 ft 406 kts 219°
2026-05-05 16:45 30.76544 130.87135 36127 ft 406 kts 219°
2026-05-05 16:46 30.71660 130.83820 36127 ft 406 kts 219°
2026-05-05 16:46 30.66775 130.80510 36123 ft 407 kts 219°
2026-05-05 16:47 30.61913 130.77219 36123 ft 407 kts 219°
2026-05-05 16:47 30.57014 130.73907 36121 ft 408 kts 219°
2026-05-05 16:48 30.52108 130.70595 36120 ft 408 kts 219°
2026-05-05 16:48 30.47198 130.67283 36118 ft 408 kts 219°
2026-05-05 16:49 30.42284 130.63972 36125 ft 409 kts 219°
2026-05-05 16:49 30.37361 130.60659 36098 ft 409 kts 219°
2026-05-05 16:50 30.32448 130.57358 36093 ft 408 kts 219°
2026-05-05 16:50 30.27531 130.54065 36119 ft 409 kts 219°
2026-05-05 16:51 30.22600 130.50761 36110 ft 411 kts 219°
2026-05-05 16:51 30.17641 130.47442 36107 ft 412 kts 219°
2026-05-05 16:52 30.12682 130.44128 36100 ft 412 kts 219°
2026-05-05 16:52 30.07722 130.40817 36103 ft 412 kts 219°
2026-05-05 16:53 30.02768 130.37512 36108 ft 412 kts 218°
2026-05-05 16:53 29.97801 130.34205 36109 ft 412 kts 219°
2026-05-05 16:54 29.92830 130.30900 36107 ft 413 kts 218°
2026-05-05 16:54 29.87855 130.27594 36105 ft 413 kts 218°
2026-05-05 16:55 29.82897 130.24303 36105 ft 414 kts 218°
2026-05-05 16:55 29.77897 130.20987 36110 ft 415 kts 218°
2026-05-05 16:56 29.72884 130.17667 36112 ft 416 kts 218°
2026-05-05 16:56 29.67854 130.14339 36101 ft 417 kts 218°
2026-05-05 16:57 29.63043 130.11159 36104 ft 418 kts 218°
2026-05-05 16:57 29.57994 130.07827 36111 ft 419 kts 218°
2026-05-05 16:58 29.52926 130.04494 36107 ft 420 kts 218°
2026-05-05 16:58 29.47856 130.01168 36104 ft 420 kts 218°
2026-05-05 16:59 29.42778 129.97841 36103 ft 421 kts 218°
2026-05-05 16:59 29.37693 129.94511 36105 ft 421 kts 218°
2026-05-05 17:00 29.32633 129.91200 36102 ft 422 kts 218°
2026-05-05 17:00 29.27498 129.87844 36100 ft 422 kts 218°
2026-05-05 17:01 29.22425 129.84533 36099 ft 423 kts 218°
2026-05-05 17:01 29.17314 129.81201 36098 ft 423 kts 218°
2026-05-05 17:02 29.12194 129.77867 36101 ft 423 kts 218°
2026-05-05 17:02 29.07073 129.74536 36099 ft 424 kts 218°
2026-05-05 17:03 29.01944 129.71204 36102 ft 424 kts 218°
2026-05-05 17:03 28.96810 129.67872 36099 ft 424 kts 218°
2026-05-05 17:04 28.91677 129.64545 36099 ft 424 kts 218°
2026-05-05 17:04 28.86549 129.61224 36098 ft 424 kts 218°
2026-05-05 17:05 28.81417 129.57905 36101 ft 424 kts 218°
2026-05-05 17:05 28.76280 129.54587 36098 ft 424 kts 218°
2026-05-05 17:06 28.71146 129.51274 36097 ft 424 kts 218°
2026-05-05 17:06 28.66002 129.47959 36090 ft 425 kts 218°
2026-05-05 17:07 28.60856 129.44646 36089 ft 425 kts 218°
2026-05-05 17:07 28.55702 129.41332 36092 ft 426 kts 218°
2026-05-05 17:08 28.50537 129.38014 36094 ft 427 kts 218°
2026-05-05 17:08 28.45364 129.34695 36094 ft 427 kts 218°
2026-05-05 17:09 28.40223 129.31400 36088 ft 427 kts 217°
2026-05-05 17:09 28.35036 129.28080 36090 ft 428 kts 217°
2026-05-05 17:10 28.29841 129.24757 36084 ft 428 kts 217°
2026-05-05 17:10 28.24649 129.21442 36082 ft 428 kts 217°
2026-05-05 17:11 28.19450 129.18125 36078 ft 428 kts 217°
2026-05-05 17:11 28.14256 129.14815 36065 ft 428 kts 217°
2026-05-05 17:12 28.09066 129.11511 36081 ft 428 kts 217°
2026-05-05 17:12 28.03872 129.08207 36080 ft 428 kts 217°
2026-05-05 17:13 27.98679 129.04908 36077 ft 428 kts 217°
2026-05-05 17:13 27.93483 129.01611 36073 ft 428 kts 217°
2026-05-05 17:14 27.88289 128.98318 36070 ft 428 kts 217°
2026-05-05 17:14 27.83090 128.95025 36069 ft 428 kts 217°
2026-05-05 17:15 27.77897 128.91736 36070 ft 428 kts 217°
2026-05-05 17:15 27.72743 128.88472 36056 ft 428 kts 217°
2026-05-05 17:16 27.67549 128.85189 36063 ft 427 kts 217°
2026-05-05 17:16 27.62360 128.81911 36061 ft 428 kts 216°
2026-05-05 17:17 27.57147 128.78620 36064 ft 431 kts 216°
2026-05-05 17:17 27.52758 128.75854 36043 ft 431 kts 216°
2026-05-05 17:18 27.47587 128.72556 36042 ft 426 kts 220°
2026-05-05 17:18 27.43200 128.68266 36056 ft 416 kts 231°
2026-05-05 17:19 27.39679 128.63203 36035 ft 402 kts 241°
2026-05-05 17:19 27.38270 128.60526 35610 ft 398 kts 242°
2026-05-05 17:19 27.36880 128.57832 34997 ft 397 kts 242°
2026-05-05 17:20 27.35495 128.55140 34218 ft 399 kts 242°
2026-05-05 17:20 27.34090 128.52428 33273 ft 403 kts 242°
2026-05-05 17:20 27.32666 128.49696 32347 ft 407 kts 242°
2026-05-05 17:20 27.31222 128.46939 31378 ft 411 kts 242°
2026-05-05 17:21 27.29764 128.44169 30630 ft 411 kts 242°
2026-05-05 17:21 27.28308 128.41409 29837 ft 411 kts 241°
2026-05-05 17:21 27.26848 128.38646 29057 ft 410 kts 241°
2026-05-05 17:22 27.23955 128.33173 27624 ft 405 kts 241°
2026-05-05 17:22 27.22539 128.30497 26963 ft 402 kts 241°
2026-05-05 17:22 27.21114 128.27805 26301 ft 400 kts 241°
2026-05-05 17:22 27.19698 128.25130 25628 ft 398 kts 240°
2026-05-05 17:23 27.18287 128.22465 24990 ft 396 kts 240°
2026-05-05 17:23 27.16881 128.19812 24338 ft 395 kts 240°
2026-05-05 17:23 27.15472 128.17152 23697 ft 397 kts 240°
2026-05-05 17:23 27.14054 128.14479 22925 ft 399 kts 240°
2026-05-05 17:24 27.12632 128.11803 22218 ft 398 kts 240°
2026-05-05 17:24 27.11225 128.09164 21773 ft 390 kts 240°
2026-05-05 17:24 27.09844 128.06588 21423 ft 380 kts 240°
2026-05-05 17:24 27.08489 128.04064 21088 ft 376 kts 240°
2026-05-05 17:25 27.07133 128.01536 20747 ft 380 kts 240°
2026-05-05 17:25 27.06229 127.99850 20529 ft 382 kts 239°
2026-05-05 17:25 27.04392 127.96427 20055 ft 382 kts 239°
2026-05-05 17:25 27.02879 127.94024 19688 ft 377 kts 228°
2026-05-05 17:26 27.00791 127.92225 19360 ft 382 kts 213°
2026-05-05 17:26 26.98361 127.90993 19010 ft 387 kts 204°
2026-05-05 17:26 26.95718 127.90332 18629 ft 394 kts 188°
2026-05-05 17:26 26.92981 127.90373 18293 ft 394 kts 184°
2026-05-05 17:27 26.90233 127.90496 17876 ft 395 kts 183°
2026-05-05 17:27 26.87486 127.90624 17499 ft 395 kts 183°
2026-05-05 17:27 26.84744 127.90740 17130 ft 394 kts 183°
2026-05-05 17:27 26.82009 127.90844 16765 ft 392 kts 183°
2026-05-05 17:28 26.79284 127.90937 16395 ft 390 kts 183°
2026-05-05 17:28 26.76580 127.91023 16041 ft 387 kts 184°
2026-05-05 17:28 26.73895 127.91104 15684 ft 384 kts 184°
2026-05-05 17:28 26.71268 127.91182 15339 ft 381 kts 183°
2026-05-05 17:29 26.68626 127.91259 14997 ft 379 kts 183°
2026-05-05 17:29 26.65998 127.91334 14686 ft 379 kts 183°
2026-05-05 17:29 26.63346 127.91408 14294 ft 382 kts 183°
2026-05-05 17:29 26.60693 127.91484 13926 ft 379 kts 183°
2026-05-05 17:30 26.58068 127.91563 13524 ft 376 kts 183°
2026-05-05 17:30 26.55460 127.91643 13121 ft 372 kts 183°
2026-05-05 17:30 26.52989 127.91717 12755 ft 366 kts 183°
2026-05-05 17:30 26.50471 127.91791 12409 ft 358 kts 183°
2026-05-05 17:31 26.48002 127.91859 12094 ft 350 kts 183°
2026-05-05 17:31 26.45598 127.91928 11783 ft 342 kts 183°
2026-05-05 17:31 26.43240 127.91997 11483 ft 335 kts 183°
2026-05-05 17:31 26.40930 127.92065 11175 ft 327 kts 184°
2026-05-05 17:32 26.38735 127.91819 10847 ft 311 kts 201°
2026-05-05 17:32 26.36778 127.90909 10510 ft 302 kts 208°
2026-05-05 17:32 26.34881 127.89922 10156 ft 300 kts 208°
2026-05-05 17:32 26.32999 127.88942 9852 ft 296 kts 208°
2026-05-05 17:33 26.31162 127.87992 9742 ft 285 kts 207°
2026-05-05 17:33 26.29396 127.87081 9674 ft 275 kts 207°
2026-05-05 17:33 26.27690 127.86205 9599 ft 266 kts 207°
2026-05-05 17:33 26.26055 127.85367 9466 ft 259 kts 208°
2026-05-05 17:34 26.24413 127.84526 9278 ft 255 kts 208°
2026-05-05 17:34 26.22832 127.83717 9035 ft 253 kts 207°
2026-05-05 17:34 26.21231 127.82897 8763 ft 253 kts 207°
2026-05-05 17:34 26.19622 127.82075 8586 ft 254 kts 207°
2026-05-05 17:35 26.18017 127.81254 8410 ft 253 kts 207°
2026-05-05 17:35 26.16422 127.80440 8263 ft 250 kts 206°
2026-05-05 17:35 26.14855 127.79644 7833 ft 247 kts 206°
2026-05-05 17:35 26.13286 127.78844 7250 ft 248 kts 206°
2026-05-05 17:36 26.11715 127.78044 6679 ft 248 kts 206°
2026-05-05 17:36 26.10242 127.77294 6172 ft 247 kts 206°
2026-05-05 17:36 26.08684 127.76501 5598 ft 246 kts 205°
2026-05-05 17:36 26.07127 127.75706 5040 ft 246 kts 205°
2026-05-05 17:37 26.05779 127.74555 4414 ft 250 kts 232°
2026-05-05 17:37 26.05059 127.72781 3791 ft 257 kts 256°
2026-05-05 17:37 26.04914 127.70778 3126 ft 262 kts 266°
2026-05-05 17:37 26.04853 127.68745 2622 ft 260 kts 266°
2026-05-05 17:38 26.04788 127.66781 2392 ft 247 kts 268°
2026-05-05 17:38 26.05033 127.65011 2380 ft 221 kts 301°
2026-05-05 17:38 26.06134 127.63959 2428 ft 212 kts 348°
2026-05-05 17:38 26.07574 127.63782 2483 ft 208 kts
2026-05-05 17:39 26.09025 127.63764 2217 ft 210 kts
2026-05-05 17:39 26.10500 127.63704 1662 ft 214 kts
2026-05-05 17:39 26.11911 127.63633 1555 ft 196 kts
2026-05-05 17:39 26.13308 127.63570 1459 ft 203 kts
2026-05-05 17:40 26.14713 127.63503 1090 ft 201 kts
2026-05-05 17:40 26.16094 127.63434 707 ft 197 kts
2026-05-05 17:40 26.17421 127.63366 655 ft 196 kts
2026-05-05 17:40 26.18875 127.63145 642 ft 232 kts 340°
2026-05-05 17:41 26.20176 127.62016 833 ft 244 kts 310°
2026-05-05 17:41 26.21229 127.60553 1185 ft 245 kts 311°
2026-05-05 17:41 26.22330 127.59092 1138 ft 245 kts 313°
2026-05-05 17:41 26.23432 127.57636 1468 ft 249 kts 312°
2026-05-05 17:42 26.24565 127.56132 1398 ft 252 kts 312°
2026-05-05 17:42 26.25692 127.54628 1510 ft 256 kts 312°
2026-05-05 17:42 26.26847 127.53088 1701 ft 263 kts 312°
2026-05-05 17:42 26.28036 127.51503 1875 ft 269 kts 311°
2026-05-05 17:43 26.29200 127.49857 2242 ft 271 kts 306°
2026-05-05 17:43 26.30268 127.48125 2648 ft 273 kts 304°
2026-05-05 17:43 26.31335 127.46377 3200 ft 273 kts 303°
2026-05-05 17:43 26.32388 127.44601 3661 ft 274 kts 298°
2026-05-05 17:44 26.32946 127.42615 3961 ft 269 kts 269°
2026-05-05 17:44 26.32546 127.40607 3951 ft 266 kts 238°
2026-05-05 17:44 26.31312 127.39125 3966 ft 259 kts 213°
2026-05-05 17:44 26.29761 127.38132 3956 ft 256 kts 205°
2026-05-05 17:45 26.28105 127.37412 3935 ft 256 kts 195°
2026-05-05 17:45 26.26369 127.36994 3934 ft 254 kts 188°
2026-05-05 17:45 26.24623 127.36746 3937 ft 252 kts 185°
2026-05-05 17:45 26.22878 127.36565 3954 ft 254 kts 183°
2026-05-05 17:46 26.21104 127.36482 3928 ft 256 kts 180°
2026-05-05 17:46 26.19325 127.36536 3949 ft 256 kts 175°
2026-05-05 17:46 26.17549 127.36730 3950 ft 256 kts 171°
2026-05-05 17:46 26.15821 127.37059 3936 ft 247 kts 167°
2026-05-05 17:47 26.14190 127.37501 3929 ft 236 kts 163°
2026-05-05 17:47 26.12634 127.38025 3947 ft 233 kts 161°
2026-05-05 17:47 26.11119 127.38647 3946 ft 232 kts 157°
2026-05-05 17:47 26.09736 127.39503 3922 ft 227 kts 135°
2026-05-05 17:48 26.08878 127.40987 3959 ft 235 kts 111°
2026-05-05 17:48 26.08627 127.42801 3946 ft 241 kts 90°
2026-05-05 17:48 26.08996 127.44591 3921 ft 242 kts 67°
2026-05-05 17:48 26.09529 127.46314 3920 ft 236 kts 93°
2026-05-05 17:49 26.09032 127.48041 3956 ft 237 kts 131°
2026-05-05 17:49 26.07697 127.49002 3944 ft 236 kts 167°
2026-05-05 17:49 26.06091 127.48807 3932 ft 238 kts 205°
2026-05-05 17:49 26.04936 127.47509 3951 ft 244 kts 243°
2026-05-05 17:50 26.04400 127.45716 3956 ft 247 kts 248°
2026-05-05 17:50 26.03552 127.44078 3927 ft 245 kts 217°
2026-05-05 17:50 26.02044 127.43334 3954 ft 238 kts 180°
2026-05-05 17:50 26.00425 127.43358 3935 ft 231 kts 186°
2026-05-05 17:51 25.99004 127.42547 3955 ft 240 kts 225°
2026-05-05 17:51 25.98078 127.40972 3965 ft 247 kts 236°
2026-05-05 17:51 25.97155 127.39333 3964 ft 252 kts 233°
2026-05-05 17:51 25.96187 127.37712 3950 ft 250 kts 232°
2026-05-05 17:52 25.95239 127.36109 3923 ft 245 kts 239°
2026-05-05 17:52 25.94839 127.34270 3955 ft 254 kts 269°
2026-05-05 17:52 25.95290 127.32351 3955 ft 263 kts 298°
2026-05-05 17:52 25.96511 127.30862 3937 ft 263 kts 328°
2026-05-05 17:53 25.98216 127.30244 3949 ft 258 kts
2026-05-05 17:53 25.99958 127.30653 3968 ft 264 kts 31°
2026-05-05 17:53 26.01340 127.31990 3949 ft 266 kts 61°
2026-05-05 17:53 26.01940 127.33885 3947 ft 258 kts 84°
2026-05-05 17:54 26.02171 127.35865 3951 ft 260 kts 86°
2026-05-05 17:54 26.02388 127.37872 3935 ft 262 kts 86°
2026-05-05 17:54 26.02606 127.39891 3949 ft 263 kts 85°
2026-05-05 17:54 26.02822 127.41886 3917 ft 255 kts 86°
2026-05-05 17:55 26.03031 127.43806 3849 ft 245 kts 86°
2026-05-05 17:55 26.03235 127.45650 3771 ft 236 kts 86°
2026-05-05 17:55 26.03434 127.47427 3657 ft 228 kts 86°
2026-05-05 17:55 26.03627 127.49141 3461 ft 225 kts 85°
2026-05-05 17:56 26.03822 127.50875 3254 ft 221 kts 85°
2026-05-05 17:56 26.04012 127.52567 2975 ft 220 kts 85°
2026-05-05 17:56 26.04199 127.54230 2740 ft 219 kts 85°
2026-05-05 17:56 26.04338 127.55913 2430 ft 220 kts 89°
2026-05-05 17:57 26.04415 127.57601 2215 ft 215 kts 89°
2026-05-05 17:57 26.04487 127.59216 2177 ft 203 kts 89°
2026-05-05 17:57 26.04558 127.60732 2151 ft 188 kts 89°
2026-05-05 17:57 26.04734 127.62101 2157 ft 178 kts 68°
2026-05-05 17:58 26.05622 127.63070 2155 ft 189 kts 26°
2026-05-05 17:58 26.06902 127.63489 2150 ft 198 kts 17°
2026-05-05 17:58 26.08267 127.63684 1874 ft 193 kts
2026-05-05 17:58 26.09571 127.63738 1636 ft 181 kts
2026-05-05 17:59 26.10786 127.63690 1391 ft 168 kts
2026-05-05 17:59 26.11891 127.63635 1183 ft 155 kts
2026-05-05 17:59 26.12970 127.63587 982 ft 155 kts
2026-05-05 17:59 26.14036 127.63535 791 ft 151 kts
2026-05-05 18:00 26.15065 127.63487 627 ft 146 kts
2026-05-05 18:00 26.16076 127.63435 423 ft 144 kts
2026-05-05 18:00 26.17061 127.63388 238 ft 141 kts
2026-05-05 18:00 26.18018 127.63343 65 ft 134 kts
2026-05-05 18:01 26.18687 127.63318 33 ft 27 kts 357°
2026-05-05 18:01 26.18709 127.63317 33 ft 5 kts 357°
2026-05-05 18:01 26.18875 127.63309 32 ft 40 kts 357°
2026-05-05 18:01 26.19202 127.63294 33 ft 46 kts 358°
2026-05-05 18:02 26.19455 127.63350 34 ft 35 kts 26°
2026-05-05 18:02 26.19618 127.63440 34 ft 15 kts 27°
2026-05-05 18:02 26.19719 127.63460 34 ft 15 kts 355°
2026-05-05 18:02 26.19825 127.63455 34 ft 15 kts 357°
2026-05-05 18:03 26.19930 127.63449 34 ft 15 kts 358°
2026-05-05 18:03 26.20035 127.63444 33 ft 15 kts 358°
2026-05-05 18:03 26.20140 127.63441 33 ft 15 kts 358°
2026-05-05 18:03 26.20245 127.63436 33 ft 15 kts 356°
2026-05-05 18:04 26.20303 127.63514 33 ft 15 kts 88°
2026-05-05 18:04 26.20306 127.63633 33 ft 15 kts 88°
2026-05-05 18:04 26.20310 127.63748 33 ft 15 kts 88°
2026-05-05 18:04 26.20315 127.63866 33 ft 15 kts 88°
2026-05-05 18:05 26.20319 127.63983 33 ft 15 kts 88°
2026-05-05 18:05 26.20324 127.64100 33 ft 15 kts 87°
2026-05-05 18:05 26.20329 127.64217 33 ft 15 kts 87°
2026-05-05 18:05 26.20369 127.64313 33 ft 15 kts 22°
2026-05-05 18:06 26.20473 127.64313 33 ft 15 kts 358°
2026-05-05 18:06 26.20508 127.64311 33 ft 15 kts 356°
2026-05-05 18:06 26.20618 127.64418 33 ft 15 kts 89°
2026-05-05 18:06 26.20621 127.64537 34 ft 15 kts 88°
2026-05-05 18:07 26.20624 127.64615 34 ft 15 kts 88°
2026-05-05 18:07 26.20628 127.64733 33 ft 15 kts 88°
2026-05-05 18:07 26.20634 127.64837 33 ft 10 kts 87°
2026-05-05 18:07 26.20652 127.64883 33 ft 7 kts 47°
2026-05-05 18:08 26.20692 127.64909 33 ft 7 kts 26°
2026-05-05 18:08 26.20703 127.64916 33 ft 1 kts 27°
2026-05-05 18:08 26.20704 127.64916 33 ft 0 kts 27°